This is the latest recevied weather packets stored in our database for station/object W1QED. If no packets are shown the sender has not sent any weather packets the latest 1 day(s).
| Time | Temp. | Humidity | Pressure | Rain* | Wind** | Luminosity | Snow |
|---|---|---|---|---|---|---|---|
| 1778025629 | 21.67° C | 38% | 1007.2 hPa | 0 mm | 2.68 m/s, 240° | - | - |
| 1778025329 | 21.67° C | 37% | 1007.2 hPa | 0 mm | 4.02 m/s, 189° | - | - |
| 1778025028 | 21.67° C | 38% | 1007.1 hPa | 0 mm | 3.58 m/s, 224° | - | - |
| 1778024726 | 22.22° C | 37% | 1007.1 hPa | 0 mm | 3.58 m/s, 231° | - | - |
| 1778024427 | 22.22° C | 37% | 1007 hPa | 0 mm | 3.13 m/s, 209° | - | - |
| 1778024125 | 22.78° C | 36% | 1006.9 hPa | 0 mm | 3.13 m/s, 224° | - | - |
| 1778023825 | 22.78° C | 36% | 1006.6 hPa | 0 mm | 4.47 m/s, 221° | - | - |
| 1778023524 | 22.78° C | 35% | 1006.6 hPa | 0 mm | 3.58 m/s, 203° | - | - |
| 1778023224 | 23.33° C | 35% | 1006.5 hPa | 0 mm | 4.92 m/s, 244° | - | - |
| 1778022927 | 23.33° C | 34% | 1006.5 hPa | 0 mm | 4.92 m/s, 162° | - | - |
| 1778022622 | 23.33° C | 34% | 1006.4 hPa | 0 mm | 4.02 m/s, 199° | - | - |
| 1778022381 | 23.33° C | 34% | 1006.4 hPa | 0 mm | 4.47 m/s, 179° | - | - |
| 1778022024 | 23.33° C | 34% | 1006.4 hPa | 0 mm | 4.92 m/s, 221° | - | - |
| 1778021720 | 23.89° C | 33% | 1006.4 hPa | 0 mm | 4.92 m/s, 238° | - | - |
| 1778021423 | 23.89° C | 33% | 1006.1 hPa | 0 mm | 4.02 m/s, 214° | - | - |
| 1778021119 | 23.89° C | 32% | 1006.1 hPa | 0 mm | 3.58 m/s, 196° | - | - |
| 1778020818 | 23.89° C | 31% | 1006.1 hPa | 0 mm | 4.92 m/s, 199° | - | - |
| 1778020518 | 24.44° C | 31% | 1006 hPa | - | 5.36 m/s, 193° | - | - |
| 1778020217 | 24.44° C | 30% | 1005.6 hPa | 0 mm | 4.92 m/s, 199° | - | - |
| 1778019917 | 24.44° C | 29% | 1005.6 hPa | 0 mm | 5.36 m/s, 209° | - | - |
| 1778019616 | 25° C | 29% | 1005.6 hPa | 0 mm | 4.92 m/s, 216° | - | - |
| 1778019318 | 25° C | 28% | 1005.7 hPa | 0 mm | 4.02 m/s, 246° | - | - |
| 1778019016 | 25° C | 29% | 1005.3 hPa | 0 mm | 4.92 m/s, 212° | - | - |
| 1778018712 | 25° C | 28% | 1005.4 hPa | 0 mm | 3.58 m/s, 247° | - | - |
| 1778018412 | 25° C | 28% | 1005.4 hPa | 0 mm | 4.92 m/s, 208° | - | - |
* Rain latest hour (hover to see other rain measurements)
** Current wind speed in m/s (hover to see current wind gust speed)